Regional Weather Roundup
Issued by NWS

Current Version | Previous Version | Text Only | Print | Product List | Glossary On
Versions: 1 2 3 4 5 6 7 8 9 10 11 12 13 14 15 16 17 18 19 20 21 22 23 24 25 26 27 28 29 30 31 32 33 34 35 36 37 38 39 40 41 42 43 44 45 46 47 48 49 50
000
ASUS43 KTOP 070459
RWRKS

WEATHER ROUNDUP FOR KANSAS
NATIONAL WEATHER SERVICE GOODLAND KS
1200 AM CDT THU MAY 07 2015

NOTE:  "FAIR" INDICATES FEW OR NO CLOUDS BELOW 12,000 FEET WITH NO
SIGNIFICANT WEATHER AND/OR OBSTRUCTIONS TO VISIBILITY.

KSZ001>006-013>018-027>032-041>047-070600-
NORTHWEST KANSAS

CITY           SKY/WX    TMP DP  RH WIND       PRES   REMARKS
GOODLAND       CLOUDY    59  49  69 W10       29.70R
HAYS           MOCLDY    66  57  72 S28G38    29.64R THUNDER
HILL CITY      TSTM      62  58  86 S6        29.66R
RUSSELL        PTCLDY    65  59  81 S35G46    29.63F
$$

KSZ061>065-074>080-084>089-070600-
SOUTHWEST KANSAS

CITY           SKY/WX    TMP DP  RH WIND       PRES   REMARKS
DODGE CITY     MOCLDY    64  52  64 S10       29.73R
ELKHART          N/A     56  45  67 S1          N/A
GARDEN CITY    PTCLDY    59  49  69 E3        29.69F
GREAT BEND     PTCLDY    64  57  77 S26G38    29.68S
LIBERAL        PTCLDY    63  48  59 NW6       29.76R
$$

KSZ066>073-081>083-090>101-070600-
SOUTHEAST KANSAS

CITY           SKY/WX    TMP DP  RH WIND       PRES   REMARKS
CHANUTE        CLOUDY    70  57  63 S14G24    29.86R
COFFEYVILLE    CLOUDY    70  57  63 S13G24    29.87R
HUTCHINSON     CLOUDY    67  62  84 SE22G29   29.76R
MEDICINE LODGE   N/A     64  59  83 S15G23    29.77R
NEWTON         CLOUDY    66  61  82 S20G29    29.80S
PARSONS        CLOUDY    71  57  61 S8        29.88R
WICHITA INTL   TSTM      68  65  90 SE13      29.82S
WICHITA JABRA  CLOUDY    68  63  84 SE15G30   29.81R
WICHITA MCCONL LGT RAIN  68  64  88 SE13G20   29.84R
WINFIELD       LGT RAIN  68  61  78 S24G31    29.85R
$$

KSZ007>012-019>026-033>040-048>060-102>105-070600-
NORTHEAST KANSAS

CITY           SKY/WX    TMP DP  RH WIND       PRES   REMARKS
CONCORDIA      MOCLDY    68  62  81 S26G38    29.65S
EMPORIA        LGT RAIN  67  61  81 S30G44    29.79F
LAWRENCE       MOCLDY    70  56  61 SE20G29   29.83F
MANHATTAN      MOCLDY    70  61  73 S17G32    29.73S
OLATHE IND     MOCLDY    68  57  68 SE15      29.87S
OLATHE EXE     MOCLDY    68  57  68 SE16      29.86F
SALINA         CLOUDY    69  58  67 S28G36    29.69F
TOPEKA BILLARD PTCLDY    71  57  61 SE18G26   29.81S
TOPEKA FORBES  MOCLDY    70  57  63 S20       29.81R
$$


USA.gov is the U.S. government's official web portal to all federal, state and local government web resources and services.